timestamp,surface_pressure_avg,surface_temp_avg,battery_voltage,lat,long
2023-10-25 00:09:00+00:00,238.5481,11.18,11.46,47.84626,-54.09684
2023-10-25 00:19:00+00:00,234.558,11.16,11.46,47.84626,-54.09684
2023-10-25 00:29:00+00:00,229.3597,11.14,11.46,47.84626,-54.09684
2023-10-25 00:39:00+00:00,226.0331,11.15,11.46,47.84626,-54.09684
2023-10-25 00:49:00+00:00,222.4948,11.14,11.46,47.84626,-54.09684
2023-10-25 00:59:00+00:00,215.3498,11.1,11.46,47.84626,-54.09684
2023-10-25 01:09:00+00:00,210.2631,11.1,11.46,47.84626,-54.09684
2023-10-25 01:19:00+00:00,211.3782,11.1,11.37,47.84626,-54.09684
2023-10-25 01:29:00+00:00,209.7031,11.1,11.37,47.84626,-54.09684
2023-10-25 01:39:00+00:00,202.4381,11.1,11.37,47.84626,-54.09684
2023-10-25 01:49:00+00:00,200.7964,11.1,11.37,47.84626,-54.09684
2023-10-25 01:59:00+00:00,200.4315,11.11,11.37,47.84626,-54.09684
2023-10-25 02:09:00+00:00,196.1614,11.15,11.37,47.84626,-54.09684
2023-10-25 02:19:00+00:00,194.5082,11.14,11.37,47.84626,-54.09684
2023-10-25 02:29:00+00:00,196.1098,11.14,11.37,47.84626,-54.09684
2023-10-25 02:39:00+00:00,195.4381,11.16,11.37,47.84626,-54.09684
2023-10-25 02:49:00+00:00,194.4881,11.17,11.37,47.84626,-54.09684
2023-10-25 02:59:00+00:00,196.3031,11.17,11.37,47.84626,-54.09684
2023-10-25 03:09:00+00:00,199.0915,11.18,11.37,47.84626,-54.09684
2023-10-25 03:19:00+00:00,201.6748,11.18,11.37,47.84626,-54.09684
2023-10-25 03:29:00+00:00,204.4365,11.19,11.37,47.84626,-54.09684
2023-10-25 03:39:00+00:00,206.7164,11.19,11.37,47.84626,-54.09684
2023-10-25 03:49:00+00:00,210.4398,11.2,11.37,47.84626,-54.09684
2023-10-25 03:59:00+00:00,213.6647,11.2,11.37,47.84626,-54.09684
2023-10-25 04:09:00+00:00,213.5731,11.2,11.37,47.84626,-54.09684
2023-10-25 04:19:00+00:00,215.8681,11.2,11.37,47.84626,-54.09684
2023-10-25 04:29:00+00:00,222.7581,11.2,11.37,47.84626,-54.09684
2023-10-25 04:39:00+00:00,228.0414,11.19,11.37,47.84626,-54.09684
2023-10-25 04:49:00+00:00,230.4865,11.2,11.37,47.84626,-54.09684
2023-10-25 04:59:00+00:00,233.3448,11.2,11.37,47.84626,-54.09684
2023-10-25 05:09:00+00:00,237.7765,11.2,11.37,47.84626,-54.09684
2023-10-25 05:19:00+00:00,244.773,11.2,11.37,47.84626,-54.09684
2023-10-25 05:29:00+00:00,250.6514,11.19,11.37,47.84626,-54.09684
2023-10-25 05:39:00+00:00,256.5314,11.2,11.37,47.84626,-54.09684
2023-10-25 05:49:00+00:00,263.3897,11.2,11.37,47.84626,-54.09684
2023-10-25 05:59:00+00:00,269.8981,11.2,11.37,47.84626,-54.09684
2023-10-25 06:09:00+00:00,274.2014,11.2,11.37,47.84626,-54.09684
2023-10-25 06:19:00+00:00,281.5881,11.15,11.37,47.84626,-54.09684
2023-10-25 06:29:00+00:00,289.4647,11.1,11.37,47.84626,-54.09684
2023-10-25 06:39:00+00:00,295.1564,11.0,11.37,47.84626,-54.09684
2023-10-25 06:49:00+00:00,300.1114,10.9,11.37,47.84626,-54.09684
2023-10-25 06:59:00+00:00,305.8262,10.8,11.37,47.84626,-54.09684
2023-10-25 07:09:00+00:00,308.8664,10.8,11.37,47.84626,-54.09684
2023-10-25 07:19:00+00:00,312.2196,10.76,11.37,47.84626,-54.09684
2023-10-25 07:29:00+00:00,316.5679,10.7,11.37,47.84626,-54.09684
2023-10-25 07:39:00+00:00,317.648,10.7,11.37,47.84626,-54.09684
2023-10-25 07:49:00+00:00,315.3096,10.71,11.37,47.84626,-54.09684
2023-10-25 07:59:00+00:00,319.053,10.73,11.37,47.84626,-54.09684
2023-10-25 08:09:00+00:00,324.0079,10.74,11.37,47.84626,-54.09684
2023-10-25 08:19:00+00:00,322.5863,10.7,11.3,47.84626,-54.09684
2023-10-25 08:29:00+00:00,319.8446,10.7,11.3,47.84626,-54.09684
2023-10-25 08:39:00+00:00,322.0131,10.7,11.3,47.84626,-54.09684
2023-10-25 08:49:00+00:00,322.8397,10.7,11.3,47.84626,-54.09684
2023-10-25 08:59:00+00:00,320.403,10.7,11.3,47.84626,-54.09684
2023-10-25 09:09:00+00:00,320.58799999999997,10.68,11.3,47.84626,-54.09684
2023-10-25 09:19:00+00:00,319.9413,10.63,11.3,47.84626,-54.09684
2023-10-25 09:29:00+00:00,315.858,10.7,11.3,47.84626,-54.09684
2023-10-25 09:39:00+00:00,311.8313,10.85,11.3,47.84626,-54.09684
2023-10-25 09:49:00+00:00,311.2997,10.89,11.3,47.84626,-54.09684
2023-10-25 09:59:00+00:00,306.783,10.83,11.3,47.84626,-54.09684
2023-10-25 10:09:00+00:00,299.713,10.7,11.3,47.84626,-54.09684
2023-10-25 10:19:00+00:00,297.1364,10.7,11.3,47.84626,-54.09684
2023-10-25 10:29:00+00:00,293.8197,10.6,11.3,47.84626,-54.09684
2023-10-25 10:39:00+00:00,286.448,10.59,11.3,47.84626,-54.09684
2023-10-25 10:49:00+00:00,282.0281,10.57,11.3,47.84626,-54.09684
2023-10-25 10:59:00+00:00,280.5048,10.55,11.3,47.84626,-54.09684
2023-10-25 11:09:00+00:00,274.1364,10.5,11.3,47.84626,-54.09684
2023-10-25 11:19:00+00:00,264.9114,10.5,11.37,47.84626,-54.09684
2023-10-25 11:29:00+00:00,258.8431,10.5,11.37,47.84626,-54.09684
2023-10-25 11:39:00+00:00,254.048,10.5,11.37,47.84626,-54.09684
2023-10-25 11:49:00+00:00,244.3865,10.5,11.37,47.84626,-54.09684
2023-10-25 11:59:00+00:00,234.3331,10.5,11.37,47.84626,-54.09684
2023-10-25 12:09:00+00:00,229.1581,10.5,11.37,47.84626,-54.09684
2023-10-25 12:19:00+00:00,229.2181,10.53,11.46,47.84626,-54.09684
2023-10-25 12:29:00+00:00,227.0998,10.57,11.46,47.84626,-54.09684
2023-10-25 12:39:00+00:00,222.3814,10.57,11.46,47.84626,-54.09684
2023-10-25 12:49:00+00:00,218.4198,10.5,11.46,47.84626,-54.09684
2023-10-25 12:59:00+00:00,216.2547,10.5,11.46,47.84626,-54.09684
2023-10-25 13:09:00+00:00,214.6581,10.5,11.46,47.84626,-54.09684
2023-10-25 13:19:00+00:00,210.6748,10.46,11.77,47.84626,-54.09684
2023-10-25 13:29:00+00:00,206.6614,10.4,11.77,47.84626,-54.09684
2023-10-25 13:39:00+00:00,204.8164,10.4,11.77,47.84626,-54.09684
2023-10-25 13:49:00+00:00,203.5764,10.4,11.77,47.84626,-54.09684
2023-10-25 13:59:00+00:00,200.0598,10.4,11.77,47.84626,-54.09684
2023-10-25 14:09:00+00:00,196.5498,10.4,11.77,47.84626,-54.09684
2023-10-25 14:19:00+00:00,194.1365,10.4,11.46,47.84626,-54.09684
2023-10-25 14:29:00+00:00,192.1131,10.4,11.46,47.84626,-54.09684
2023-10-25 14:39:00+00:00,191.0681,10.43,11.46,47.84626,-54.09684
2023-10-25 14:49:00+00:00,190.8098,10.46,11.46,47.84626,-54.09684
2023-10-25 14:59:00+00:00,189.7798,10.47,11.46,47.84626,-54.09684
2023-10-25 15:09:00+00:00,189.8598,10.49,11.46,47.84626,-54.09684
2023-10-25 15:19:00+00:00,190.6282,10.49,11.61,47.84626,-54.09684
2023-10-25 15:29:00+00:00,188.6948,10.49,11.61,47.84626,-54.09684
2023-10-25 15:39:00+00:00,185.7431,10.5,11.61,47.84626,-54.09684
2023-10-25 15:49:00+00:00,187.7048,10.5,11.61,47.84626,-54.09684
2023-10-25 15:59:00+00:00,194.4248,10.5,11.61,47.84626,-54.09684
2023-10-25 16:09:00+00:00,196.5998,10.5,11.61,47.84626,-54.09684
2023-10-25 16:19:00+00:00,196.6915,10.5,11.61,47.84626,-54.09684
2023-10-25 16:29:00+00:00,203.5132,10.5,11.61,47.84626,-54.09684
2023-10-25 16:39:00+00:00,214.9698,10.5,11.61,47.84626,-54.09684
2023-10-25 16:49:00+00:00,221.6547,10.5,11.61,47.84626,-54.09684
2023-10-25 16:59:00+00:00,226.0698,10.5,11.61,47.84626,-54.09684
2023-10-25 17:09:00+00:00,231.8131,10.5,11.61,47.84626,-54.09684
2023-10-25 17:19:00+00:00,236.1014,10.54,11.53,47.84626,-54.09684
2023-10-25 17:29:00+00:00,239.6981,10.58,11.53,47.84626,-54.09684
2023-10-25 17:39:00+00:00,246.4197,10.59,11.53,47.84626,-54.09684
2023-10-25 17:49:00+00:00,251.403,10.6,11.53,47.84626,-54.09684
2023-10-25 17:59:00+00:00,255.6431,10.59,11.53,47.84626,-54.09684
2023-10-25 18:09:00+00:00,265.0547,10.59,11.53,47.84626,-54.09684
2023-10-25 18:19:00+00:00,276.7664,10.59,11.46,47.84626,-54.09684
2023-10-25 18:29:00+00:00,285.2347,10.6,11.46,47.84626,-54.09684
2023-10-25 18:39:00+00:00,293.58299999999997,10.69,11.46,47.84626,-54.09684
2023-10-25 18:49:00+00:00,302.1447,10.68,11.46,47.84626,-54.09684
2023-10-25 18:59:00+00:00,309.2297,10.61,11.46,47.84626,-54.09684
2023-10-25 19:09:00+00:00,314.5096,10.61,11.46,47.84626,-54.09684
2023-10-25 19:19:00+00:00,318.3895,10.63,11.46,47.84626,-54.09684
2023-10-25 19:29:00+00:00,323.7497,10.67,11.46,47.84626,-54.09684
2023-10-25 19:39:00+00:00,332.028,10.68,11.46,47.84626,-54.09684
2023-10-25 19:49:00+00:00,337.1379,10.69,11.46,47.84626,-54.09684
2023-10-25 19:59:00+00:00,338.028,10.7,11.46,47.84626,-54.09684
2023-10-25 20:09:00+00:00,345.168,10.7,11.46,47.84626,-54.09684
2023-10-25 20:19:00+00:00,353.793,10.7,11.46,47.84626,-54.09684
2023-10-25 20:29:00+00:00,352.0696,10.7,11.46,47.84626,-54.09684
2023-10-25 20:39:00+00:00,352.3129,10.7,11.46,47.84626,-54.09684
2023-10-25 20:49:00+00:00,360.1979,10.7,11.46,47.84626,-54.09684
2023-10-25 20:59:00+00:00,361.1613,10.6,11.46,47.84626,-54.09684
2023-10-25 21:09:00+00:00,353.5096,10.6,11.46,47.84626,-54.09684
2023-10-25 21:19:00+00:00,357.6296,10.6,11.37,47.84626,-54.09684
2023-10-25 21:29:00+00:00,363.6829,10.6,11.37,47.84626,-54.09684
2023-10-25 21:39:00+00:00,356.658,10.6,11.37,47.84626,-54.09684
2023-10-25 21:49:00+00:00,350.483,10.6,11.37,47.84626,-54.09684
2023-10-25 21:59:00+00:00,351.3163,10.6,11.37,47.84626,-54.09684
2023-10-25 22:09:00+00:00,349.1279,10.6,11.37,47.84626,-54.09684
2023-10-25 22:19:00+00:00,342.3397,10.6,11.37,47.84626,-54.09684
2023-10-25 22:29:00+00:00,343.1246,10.6,11.37,47.84626,-54.09684
2023-10-25 22:39:00+00:00,338.1563,10.6,11.37,47.84626,-54.09684
2023-10-25 22:49:00+00:00,325.1512,10.6,11.37,47.84626,-54.09684
2023-10-25 22:59:00+00:00,320.813,10.61,11.37,47.84626,-54.09684
2023-10-25 23:09:00+00:00,321.7663,10.62,11.37,47.84626,-54.09684
2023-10-25 23:19:01+00:00,314.0513,10.66,11.37,47.84626,-54.09684
2023-10-25 23:29:01+00:00,300.3914,10.68,11.37,47.84626,-54.09684
2023-10-25 23:39:01+00:00,292.548,10.69,11.37,47.84626,-54.09684
2023-10-25 23:49:01+00:00,286.5514,10.6,11.37,47.84626,-54.09684
2023-10-25 23:59:01+00:00,276.8464,10.6,11.37,47.84626,-54.09684
